G1CAE-13 Weather Reports


time (UTC)temp
C
wind
direction
speed
KPH
gust
KPH
rain 1hr
cm
rain 24hr
cm
rain mn
cm
humidity
%
barometer
mb
20260506050903 5 79 1.6 6.4 0.00 0.00 0.00 74 1015.7
20260506050217 5 78 1.6 6.4 0.00 0.00 0.00 74 1015.8
20260506044503 5 77 3.2 9.7 0.00 0.00 0.00 75 1015.8
20260506043818 5 81 1.6 4.8 0.00 0.00 0.00 75 1015.7
20260506042703 4 75 1.6 6.4 0.00 0.00 0.00 76 1015.8
20260506042018 4 76 1.6 6.4 0.00 0.00 0.00 76 1015.7
20260506040903 5 75 1.6 4.8 0.00 0.00 0.00 76 1015.9
20260506040003 5 76 1.6 6.4 0.00 0.00 0.00 76 1016.0
20260506035403 5 76 1.6 6.4 0.00 0.00 0.00 76 1015.7
20260506034503 5 73 1.6 3.2 0.00 0.00 0.00 76 1016.0
20260506033603 5 71 1.6 4.8 0.00 0.00 0.00 76 1016.0
20260506032917 5 72 1.6 4.8 0.00 0.00 0.00 76 1016.1
20260506031803 5 76 1.6 4.8 0.00 0.00 0.00 76 1016.2
20260506030903 5 78 1.6 4.8 0.00 0.00 0.00 77 1016.0
20260506030217 5 76 3.2 9.7 0.00 0.00 0.00 76 1015.8
20260506025403 5 74 3.2 9.7 0.00 0.00 0.00 76 1016.2
20260506024503 5 77 3.2 9.7 0.00 0.00 0.00 76 1015.9
20260506023603 5 76 1.6 4.8 0.00 0.00 0.00 77 1015.9
20260506022703 5 75 1.6 6.4 0.00 0.00 0.00 77 1015.9
20260506021803 5 75 3.2 6.4 0.00 0.00 0.00 77 1015.7
20260506020903 5 70 3.2 9.7 0.00 0.00 0.00 77 1015.9
20260506020218 5 72 3.2 6.4 0.00 0.00 0.00 77 1016.0
20260506015403 5 74 1.6 4.8 0.00 0.00 0.00 79 1016.1
20260506014503 5 70 1.6 3.2 0.00 0.00 0.00 78 1016.1
20260506013816 5 73 1.6 4.8 0.00 0.00 0.00 78 1016.0
20260506012703 5 73 1.6 4.8 0.00 0.00 0.00 78 1016.1
20260506012017 5 75 1.6 4.8 0.00 0.00 0.00 77 1016.3
20260506010903 5 80 1.6 6.4 0.00 0.00 0.00 77 1016.2
20260506010004 5 75 1.6 4.8 0.00 0.00 0.00 77 1016.2
20260506005403 5 75 1.6 6.4 0.00 0.00 0.00 77 1016.2
20260506004717 5 77 1.6 6.4 0.00 0.00 0.00 77 1016.2
20260506003603 5 76 1.6 6.4 0.00 0.00 0.00 77 1016.0
20260506002703 5 77 1.6 6.4 0.00 0.00 0.00 76 1016.1
20260506001803 5 80 3.2 9.7 0.00 0.00 0.00 76 1016.2
20260506000903 5 84 3.2 9.7 0.00 0.00 0.00 76 1016.1
20260506000003 5 78 3.2 9.7 0.00 0.00 0.00 76 1016.0
20260505235403 5 76 3.2 9.7 0.00 0.00 0.00 76 1016.3
20260505234503 5 79 1.6 6.4 0.00 0.00 0.00 76 1016.3
20260505233603 5 81 3.2 9.7 0.00 0.00 0.00 76 1016.3
20260505232703 6 81 3.2 9.7 0.00 0.00 0.00 76 1016.2
20260505231803 6 78 3.2 9.7 0.00 0.00 0.00 76 1016.4
20260505230903 6 75 3.2 12.9 0.00 0.00 0.00 76 1016.2
20260505230004 6 73 1.6 9.7 0.00 0.00 0.00 75 1016.3
20260505225403 6 81 3.2 9.7 0.00 0.00 0.00 75 1016.4
20260505224503 6 73 3.2 12.9 0.00 0.00 0.00 75 1016.2
20260505223603 6 83 3.2 11.3 0.00 0.00 0.00 75 1016.3
20260505222917 6 90 3.2 9.7 0.00 0.00 0.00 74 1016.2
20260505221803 7 76 3.2 12.9 0.00 0.00 0.00 73 1016.3
20260505221117 7 75 3.2 12.9 0.00 0.00 0.00 73 1016.6
20260505220003 7 78 3.2 9.7 0.00 0.00 0.00 73 1016.3
20260505215403 7 85 3.2 9.7 0.00 0.00 0.00 72 1016.2
20260505214503 7 83 3.2 9.7 0.00 0.00 0.00 72 1016.3
20260505213603 7 83 3.2 9.7 0.00 0.00 0.00 72 1015.9
20260505212703 7 84 3.2 11.3 0.00 0.00 0.00 72 1015.9
20260505211803 7 82 3.2 11.3 0.00 0.00 0.00 72 1015.8
20260505211117 7 83 3.2 9.7 0.00 0.00 0.00 72 1016.1
20260505210003 7 76 3.2 11.3 0.00 0.00 0.00 72 1016.2
20260505205403 7 76 3.2 12.9 0.00 0.00 0.00 72 1016.0
20260505204503 7 76 3.2 12.9 0.00 0.00 0.00 71 1015.8
20260505203817 7 80 3.2 12.9 0.00 0.00 0.00 71 1015.8
20260505202703 7 80 3.2 11.3 0.00 0.00 0.00 71 1016.0
20260505201803 8 76 3.2 9.7 0.00 0.00 0.00 70 1016.0
20260505200903 8 80 3.2 9.7 0.00 0.00 0.00 70 1016.0
20260505200003 8 78 3.2 6.4 0.00 0.00 0.00 70 1015.9
20260505195403 8 75 3.2 6.4 0.00 0.00 0.00 70 1015.8
20260505194503 8 79 3.2 9.7 0.00 0.00 0.00 70 1015.8
20260505193603 8 87 3.2 9.7 0.00 0.00 0.00 70 1015.8
20260505192703 8 82 3.2 11.3 0.00 0.00 0.00 70 1015.4
20260505191803 8 80 3.2 11.3 0.00 0.00 0.00 70 1015.5
20260505190903 8 81 3.2 12.9 0.00 0.00 0.00 69 1015.4
20260505190004 8 88 3.2 12.9 0.00 0.00 0.00 68 1015.3
20260505185403 8 84 3.2 12.9 0.00 0.00 0.00 69 1015.1
20260505184503 8 80 4.8 16.1 0.00 0.00 0.00 68 1015.1
20260505183603 9 83 4.8 12.9 0.00 0.00 0.00 67 1015.2
20260505182703 9 82 4.8 16.1 0.00 0.00 0.00 68 1015.6
20260505181803 9 84 4.8 12.9 0.00 0.00 0.00 68 1015.3
20260505180903 9 87 4.8 17.7 0.00 0.00 0.00 68 1015.4
20260505180003 9 83 4.8 14.5 0.00 0.00 0.00 68 1015.4
20260505175617 10 77 4.8 14.5 0.00 0.00 0.00 68 1015.2
20260505174503 10 84 6.4 16.1 0.00 0.00 0.00 68 1015.4
20260505173603 10 79 4.8 16.1 0.00 0.00 0.00 69 1015.5
20260505172703 10 85 4.8 20.9 0.00 0.00 0.00 68 1015.4
20260505171803 10 89 4.8 12.9 0.00 0.00 0.00 67 1015.2
20260505170903 10 80 6.4 16.1 0.00 0.00 0.00 68 1015.1
20260505170217 11 72 6.4 16.1 0.00 0.00 0.00 69 1015.3
20260505165403 11 90 4.8 17.7 0.00 0.00 0.00 68 1015.2
20260505164503 11 89 6.4 20.9 0.00 0.00 0.00 67 1015.1
20260505163603 12 78 6.4 20.9 0.00 0.00 0.00 66 1015.1
20260505162703 12 85 6.4 20.9 0.00 0.00 0.00 67 1015.1
20260505162018 12 85 6.4 20.9 0.00 0.00 0.00 66 1015.3
20260505160903 10 76 6.4 17.7 0.00 0.00 0.00 70 1014.9
20260505152703 12 66 3.2 9.7 0.00 0.00 0.00 64 1014.8
20260505151803 13 75 3.2 9.7 0.00 0.00 0.00 62 1015.0
20260505150903 13 64 1.6 6.4 0.00 0.00 0.00 62 1014.8
20260505124503 13 149 1.6 4.8 0.00 0.00 0.00 55 1014.8
20260505123603 12 133 1.6 4.8 0.00 0.00 0.00 57 1014.9
20260505122917 13 168 1.6 4.8 0.00 0.00 0.00 56 1014.8
20260505121803 12 76 1.6 6.4 0.00 0.00 0.00 58 1015.0
20260505120903 12 66 1.6 6.4 0.00 0.00 0.00 56 1014.9
20260505120004 13 92 1.6 4.8 0.00 0.00 0.00 58 1014.9
20260505115403 12 136 1.6 4.8 0.00 0.00 0.00 57 1014.9
20260505114503 13 85 1.6 6.4 0.00 0.00 0.00 56 1014.8
20260505113603 12 183 0.0 3.2 0.00 0.00 0.00 57 1014.9
20260505112703 12 56 1.6 6.4 0.00 0.00 0.00 60 1015.0
20260505112018 13 69 1.6 6.4 0.00 0.00 0.00 55 1015.0
20260505110903 12 78 1.6 6.4 0.00 0.00 0.00 58 1015.1
20260505101803 11 87 1.6 3.2 0.00 0.00 0.00 65 1015.2
20260505100903 11 39 1.6 4.8 0.00 0.00 0.00 65 1015.2
20260505100218 11 44 1.6 4.8 0.00 0.00 0.00 67 1015.3
20260505095403 11 60 1.6 4.8 0.00 0.00 0.00 69 1015.1
20260505094503 11 53 1.6 6.4 0.00 0.00 0.00 69 1015.1
20260505093817 11 59 1.6 4.8 0.00 0.00 0.00 71 1015.2
20260505092703 11 51 1.6 6.4 0.00 0.00 0.00 70 1015.2
20260505091803 10 30 1.6 4.8 0.00 0.00 0.00 73 1015.0
20260505090903 11 57 1.6 4.8 0.00 0.00 0.00 71 1015.2
20260505090218 10 63 1.6 4.8 0.00 0.00 0.00 71 1015.1
20260505085403 10 68 1.6 3.2 0.00 0.00 0.00 70 1015.1
20260505084503 10 64 0.0 3.2 0.00 0.00 0.00 71 1015.1
20260505083603 10 65 1.6 4.8 0.00 0.00 0.00 73 1015.1
20260505082703 10 61 1.6 3.2 0.00 0.00 0.00 73 1015.1
20260505082017 10 66 1.6 4.8 0.00 0.00 0.00 73 1015.2
20260505080903 10 67 1.6 4.8 0.00 0.00 0.00 73 1015.0
20260505080003 10 58 1.6 4.8 0.00 0.00 0.00 74 1015.1
20260505075403 9 51 1.6 6.4 0.00 0.00 0.00 75 1015.1
20260505074503 9 54 1.6 4.8 0.00 0.00 0.00 76 1015.3
20260505073603 9 60 1.6 9.7 0.00 0.00 0.00 78 1015.2
20260505072917 9 55 1.6 6.4 0.00 0.00 0.00 79 1015.2
20260505072017 9 55 1.6 9.7 0.00 0.00 0.00 79 1015.2
20260505070903 9 54 1.6 6.4 0.00 0.00 0.00 79 1015.2
20260505070003 9 69 1.6 6.4 0.00 0.00 0.00 78 1014.9
20260505065617 9 58 1.6 6.4 0.00 0.00 0.00 78 1015.1
20260505064718 9 47 1.6 4.8 0.00 0.00 0.00 78 1015.1
20260505063603 9 108 0.0 3.2 0.00 0.00 0.00 79 1015.1
20260505062703 9 69 1.6 4.8 0.00 0.00 0.00 79 1015.1
20260505061803 9 82 0.0 4.8 0.00 0.00 0.00 78 1014.9
20260505060903 9 117 0.0 3.2 0.00 0.00 0.00 81 1014.5
20260505060004 8 113 0.0 3.2 0.00 0.00 0.00 84 1014.6
20260505055403 8 164 0.0 1.6 0.00 0.00 0.00 85 1014.6
20260505054503 8 82 0.0 1.6 0.00 0.00 0.00 85 1014.7
20260505053603 8 0 0.0 0.0 0.00 0.00 0.00 85 1014.6
20260505052703 7 0 0.0 0.0 0.00 0.00 0.00 86 1014.6